Location: Daybis Observatory
(33.4273°N, 88.8061°W)
Time: 09:16:31
(UTC-06:00)

Daily predictions for brighter satellites

Satellite Brightness Start Highest point End
(mag) Time Altitude Azimuth Time Altitude Azimuth Time Altitude Azimuth
Meteor 2-10 4.0 17:37:48 10° N 17:42:56 65° E 17:48:14 10° SSE
Timation 1 Rocket 4.5 17:39:13 10° NNW 17:45:08 56° ENE 17:51:00 10° SE
Delta 2 Rocket 4.5 17:42:42 10° SSW 17:45:26 23° SSE 17:48:07 10° E
CZ-4 R/B 2.6 17:42:54 10° S 17:46:38 46° W 17:50:24 10° NNW
SL-16 R/B 2.3 17:43:07 10° SSW 17:48:46 83° WNW 17:54:28 10° NNE
Centaur AC-72 4.4 17:47:49 10° SW 17:52:49 28° SSE 18:00:04 10° ESE
Cosmos 372 Rocket 4.2 17:47:45 10° NNW 17:52:50 75° WSW 17:57:55 10° S
Cosmos 1900 4.5 17:50:53 10° NNW 17:55:45 53° ENE 18:00:39 10° SE
Intelsat 5-1 Rocket 3.8 17:55:45 10° SSW 17:56:53 12° S 17:58:10 10° SSE
Meteor 1-27 4.4 17:52:46 10° N 17:58:38 88° W 18:04:28 10° S
Cosmos 773 Rocket 4.1 17:54:29 10° S 17:59:31 58° ESE 18:04:37 10° NNE
ALOS 3.9 17:58:16 10° E 18:00:40 14° ENE 18:03:04 10° NE
USA 215 4.5 17:56:52 10° ENE 18:01:37 22° NNE 18:06:21 10° NNW
Cosmos 1484 Rocket 2.8 17:58:03 10° SSE 18:01:59 86° ENE 18:05:59 10° N
IDEFIX/ARIANE 42P 4.1 17:57:16 10° SSW 18:02:09 40° W 18:07:04 10° NNW
Cosmos 2297 3.7 18:01:08 10° NNW 18:06:52 76° ENE 18:12:35 10° SSE
Meteor 1-28 Rocket 3.1 18:03:53 10° NNE 18:07:35 72° E 18:11:19 10° S
Cosmos 1340 Rocket 4.1 18:03:56 10° SSW 18:07:40 42° W 18:11:24 10° N
CZ-2C R/B 4.4 18:04:22 10° SSW 18:08:49 33° W 18:13:09 10° NW
BREEZE-M DEB (TANK) 4.5 18:05:44 10° SSE 18:09:00 25° ESE 18:15:09 13° ENE
Cosmos 292 Rocket 4.2 18:04:56 10° S 18:09:20 39° ESE 18:13:44 10° NNE
YAOGAN 1 4.2 18:05:53 10° SSW 18:09:54 39° W 18:13:58 10° NNW
NOAA 12 4.4 18:07:55 10° SE 18:12:52 44° ENE 18:17:51 10° N
Cosmos 1707 Rocket 3.4 18:08:52 10° N 18:13:12 69° E 18:17:31 10° SSE
COSMO-SKYMED 1 3.2 18:11:57 10° N 18:16:13 59° WNW 18:20:28 10° SSW
OTV 4 3.9 18:16:52 10° SW 18:17:08 10° SW 18:17:25 10° SSW
Cosmos 1666 Rocket 3.6 18:15:07 10° S 18:19:27 81° W 18:23:51 10° N
Cosmos 1943 4.0 18:21:08 10° SSE 18:25:55 29° ESE 18:28:35 20° ENE
Cosmos 1869 3.7 18:22:18 10° N 18:26:09 41° E 18:29:58 10° SSE
Cosmos 1626 3.2 18:23:29 10° SSW 18:27:05 47° W 18:30:43 10° N
Lacrosse 4 Rocket 1.7 18:26:32 10° N 18:30:21 39° ENE 18:33:02 17° SE
Cosmos 1933 Rocket 3.8 18:26:47 10° SSE 18:31:00 45° E 18:35:15 10° NNE
Helios 1B rocket 4.4 18:37:11 14° SE 18:37:11 14° SE 18:38:08 10° SE
Resurs 01 Rocket 2.4 18:32:10 10° SE 18:35:58 29° ENE 18:39:48 10° NNE
Cosmos 1184 Rocket 4.3 18:34:34 10° SSW 18:37:43 39° W 18:40:52 10° N
H-2A ROCKET BODY 3.6 18:11:54 10° W 18:41:29 68° S 18:45:25 24° ESE
USA 229 DEB 4.2 18:37:58 10° SW 18:44:40 58° NW 18:51:30 10° NNE
USA 229 4.2 18:38:03 10° SW 18:44:46 59° WNW 18:51:36 10° NNE
FREGAT/IRIS 2.4 18:43:09 10° SSE 18:46:10 83° ENE 18:49:14 10° N
Iridium 4 Rocket 3.0 18:43:30 10° S 18:48:02 89° E 18:52:17 10° N
Cosmos 1627 Rocket 4.4 18:42:17 10° S 18:48:20 60° E 18:54:22 10° NNE
Cosmos 1655 Rocket 4.3 18:43:14 10° SSE 18:49:15 45° E 18:55:14 10° NNE
Spot 2 Rocket 3.7 18:45:27 10° SE 18:50:11 43° ENE 18:54:56 10° N
ISS -0.9 18:48:50 10° S 18:49:29 13° SSE 18:49:29 13° SSE
Cosmos 1470 Rocket 3.5 18:48:15 10° S 18:52:36 87° W 18:56:57 10° N
Cosmos 1603 4.0 18:48:12 10° SSW 18:53:45 65° WNW 18:59:20 10° NNE
Tiangong 1 2.1 18:51:37 10° W 18:54:17 34° NNW 18:54:17 34° NNW
Lacrosse 5 rocket 4.4 18:53:01 10° W 18:55:11 14° WSW 18:57:25 10° SSW
Cosmos 1242 Rocket 2.2 18:52:45 10° N 18:56:14 81° E 18:59:44 10° S
Cosmos 1455 3.8 18:54:57 10° NNW 18:58:28 36° W 19:01:59 10° SSW
NOSS 3-1 (A) 3.5 18:53:04 10° S 18:58:31 50° ESE 19:00:05 40° ENE
ERBS 4.2 18:57:31 10° S 18:59:07 22° S 18:59:07 22° S
FengYun 1-2 T 4.1 18:56:19 10° SSE 19:01:49 67° ENE 19:07:18 10° N
Cosmos 2242 Rocket 4.5 19:05:37 10° NNW 19:09:54 50° W 19:14:12 10° SSW
Cosmos 2026 Rocket 3.8 19:07:08 10° S 19:13:21 87° E 19:19:31 10° N
Haruka 4.3 19:09:08 10° W 19:13:58 77° S 19:20:46 32° ESE
BREEZE M DEB (TANK) 4.3 19:13:29 10° NW 19:13:45 13° WNW 19:13:45 13° WNW
SJ-6B 4.3 19:13:19 10° SSW 19:17:08 39° W 19:21:01 10° NNW
Meteor 2-20 4.4 19:16:34 10° S 19:22:40 85° W 19:28:50 10° N
Cosmos 2369 Rocket 3.4 19:26:07 10° NNW 19:28:56 29° N 19:28:56 29° N
Cosmos 972 Rocket 4.3 19:26:56 10° NNW 19:31:23 61° N 19:31:23 61° N
OAO 1 4.5 19:27:30 10° W 19:32:44 78° NW 19:32:44 78° NW
NOSS 3-1 (C) 3.7 19:30:05 10° SW 19:35:41 59° NW 19:37:28 42° N
ALOS 3.1 19:33:09 10° S 19:37:39 48° W 19:42:10 10° NNW
USA 215 3.1 19:44:05 71° NNE 19:44:05 71° NNE 19:50:21 10° NW
Cosmos 1428 Rocket 4.4 19:38:20 10° S 19:44:25 79° W 19:45:26 63° NNW
ATLAS 2A CENTAUR R/B 3.8 19:45:34 10° SW 19:46:28 19° SSW 19:46:28 19° SSW
CZ-3A R/B 3.6 19:52:12 10° NW 19:56:49 64° SW 20:08:08 10° SSE
Lacrosse 4 Rocket 4.4 20:06:55 10° W 20:08:39 12° WSW 20:09:37 12° WSW
Resurs 01 Rocket 4.1 20:09:07 10° SW 20:12:24 20° W 20:15:42 10° NW
